* Astronomy

Members Login
Username 
 
Password 
    Remember Me  
Post Info TOPIC: CZ-2D Rocket body re-entry


L

Posts: 131433
Date:
RE: CZ-2D Rocket body re-entry
Permalink  
 


Update:
The CZ-2D rocket body is predicted to re-enter the Earths atmosphere on the 28th January, 2012 @ 21:30 GMT ± 4 hours.

CZ-2D RB
1 33435U 08056C   13028.79618353  .12568617  28143-5  13275-3 0  5562
2 33435 097.8465 162.4030 0010775 040.8946 319.4065 16.50316283235111

Period:       88.0 minutes
Inclination: 97.85° 
Apogee:     188 km
Perigee:     163 km
Revolution Number:    23508
Predicted  Location:    46.1°S, 116.0°W



__________________


L

Posts: 131433
Date:
Permalink  
 

A CZ-2D Rocket body that was launched on the 5th November, 2008, from the Jiuquan Satellite Launch Centre, for the Shiyan Weixing 3 (SW-3) satellite mission is predicted to re-enter the Earths atmosphere on the 28th January, 2012 @ 20:40 GMT ± 8 hours.

CZ-2D RB
1 33435U 08056C   13028.30940847  .04494096  28199-5  35846-3 0  5531
2 33435 097.8717 161.7859 0013624 019.4768 340.6267 16.39451636235032

Period:       88.2 minutes
Inclination: 97.87° 
Apogee:     196 km
Perigee:     175 km
Revolution Number:    23509
Predicted  Location:    19.2°N, 82.0°E



__________________
Page 1 of 1  sorted by
 
Quick Reply

Please log in to post quick replies.



Create your own FREE Forum
Report Abuse
Powered by ActiveBoard